[[{"header":{"parameterUnit":"m.s-1","parameterCategory":1,"la1":30.2991,"la2":30.254,"lo1":-89.0895,"lo2":-89.0444,"dy":0.0017,"dx":0.0017,"nx":28,"ny":28,"refTime":"2024-04-19T09:00:00:Z","depth":0,"parameterNumber":2,"parameterNumberName":"U-component_of_WINDS"},"data":[0,0,0,0,0,0,0,0,0,0,0,0,0,0,0,0,0,0,0,0,0,0,0,0,0,0,0,0,0,0,0,0,0,0,0,0,0,0,0,0,0,0,0,0,0,0,0,0,0,0,0,0,0,0,0,0,0,0,1.167,1.1671,0,1.1755,1.1756,1.1757,1.1762,1.1761,1.176,1.1759,1.1847,1.185,1.1853,0,0,0,0,0,0,0,0,0,0,0,0,0,1.151,1.1513,1.167,1.1671,1.1672,1.1755,1.1756,1.1758,1.1762,1.1761,1.176,1.1759,1.1846,1.1849,1.1853,0,0,0,0,0,0,0,0,0,0,0,0,0,1.1586,1.1514,1.167,1.1684,1.1687,1.1755,1.1756,1.1758,1.1763,1.1761,1.176,1.1758,1.1844,1.1849,1.1854,1.1913,0,0,1.1869,1.1871,0,0,0,0,0,0,0,0,1.1582,1.1592,1.1681,1.1684,1.1686,1.1747,1.1732,1.181,1.1763,1.1734,1.1759,1.1758,1.1815,1.1822,1.1841,1.1917,1.1921,1.1869,1.1872,1.1874,1.1875,0,0,0,0,0,0,0,1.1576,1.1588,1.1704,1.1682,1.1686,1.1687,1.1696,1.1747,1.1781,1.1736,1.1737,1.1747,1.1816,1.1836,1.1843,1.1922,1.1869,1.1873,1.1876,1.1878,1.2051,1.2052,0,0,0,0,0,0,1.1568,1.1584,1.1701,1.1706,1.1629,1.1691,1.1701,1.1729,1.1781,1.1787,1.1748,1.1747,1.1829,1.1837,1.1846,1.1919,1.1874,1.1879,1.1881,1.2049,1.2051,1.2053,0,0,0,0,0,0,1.1565,1.1579,1.1697,1.1645,1.166,1.1695,1.1726,1.1731,1.1752,1.179,1.1796,1.1763,1.1828,1.1839,1.1896,1.1922,1.1881,1.1885,1.2047,1.205,1.2052,1.2064,0,0,0,0,0,0,1.156,1.1577,1.16,1.1646,1.1663,1.1746,1.1728,1.1734,1.176,1.1759,1.1805,1.1811,1.1828,1.1889,1.1901,1.1928,1.1889,1.2045,1.2048,1.2051,1.2062,1.2067,1.2071,0,0,0,0,0,1.1554,1.16,1.1602,1.1616,1.1693,1.1748,1.1758,1.1776,1.1762,1.1786,1.181,1.181,1.1917,1.1895,1.1908,1.1937,1.2044,1.2047,1.2051,1.206,1.2066,1.2071,0,0,0,0,0,0,1.1557,1.1607,1.1608,1.167,1.1705,1.1749,1.1779,1.1782,1.1821,1.1818,1.1839,1.1849,1.1905,1.1927,1.1901,1.1997,1.1979,1.1985,1.1981,1.1987,1.1992,1.1985,1.1893,0,0,0,0,0,1.1565,1.1606,1.1647,1.1698,1.1715,1.1744,1.1768,1.1779,1.1816,1.183,1.1859,1.1894,1.1935,1.1962,1.2003,1.2065,1.2075,1.2091,1.2096,1.21,1.2105,1.2139,1.2147,1.2065,1.2065,1.2065,0,0,1.1581,1.1614,1.1638,1.1699,1.1727,1.1769,1.1756,1.1801,1.1832,1.1837,1.1892,1.1915,1.1955,1.2015,1.2043,1.2035,1.213,1.2105,1.2107,1.2111,1.2144,1.2152,1.2159,1.2068,1.2068,1.2067,0,0,1.1633,1.1661,1.1707,1.1735,1.1778,1.1797,1.1807,1.1851,1.1866,1.1922,1.1926,1.1964,1.2035,1.2064,1.2087,1.215,1.2151,1.2162,1.2187,1.222,1.2226,1.2232,1.2254,1.2262,1.2167,1.2168,1.2168,0,1.1648,1.1711,1.1729,1.1774,1.1801,1.1807,1.1853,1.188,1.1933,1.1951,1.1942,1.2031,1.2059,1.2125,1.214,1.216,1.2172,1.2157,1.2224,1.223,1.2236,1.2257,1.2265,1.2169,1.2168,1.2168,1.2168,0,1.1727,1.1771,1.1802,1.1854,1.1884,1.1929,1.1954,1.1982,1.199,1.201,1.2067,1.2101,1.2148,1.2164,1.2173,1.2232,1.2226,1.222,1.2202,1.2244,1.2264,1.2272,1.217,1.217,1.2169,1.2169,0,0,1.1782,1.1844,1.1855,1.1878,1.1926,1.196,1.2005,1.2051,1.2075,1.2112,1.215,1.221,1.2205,1.2232,1.2244,1.2273,1.2319,1.2263,1.2264,1.2272,1.2386,1.239,1.2399,1.232,1.2322,1.2323,1.2382,0,1.1838,1.1919,1.1937,1.2007,1.2047,1.2054,1.2094,1.2127,1.2147,1.2184,1.2205,1.2248,1.2238,1.2254,1.2283,1.2307,1.2342,1.2303,1.2356,1.2357,1.2345,1.2409,1.2414,1.2468,1.239,1.2392,1.2393,0,1.1915,1.1953,1.2027,1.2069,1.2087,1.2122,1.2166,1.2201,1.2239,1.2251,1.2281,1.229,1.2337,1.2317,1.2382,1.2355,1.2377,1.2393,1.2395,1.24,1.2377,1.2416,1.2485,1.2493,1.2405,1.2404,1.2403,0,1.1947,1.2018,1.2071,1.2091,1.2141,1.2166,1.2188,1.2224,1.2251,1.2289,1.2306,1.2349,1.2373,1.2406,1.2426,1.2409,1.2489,1.2471,1.25,1.2499,1.2516,1.2515,1.259,1.2531,1.2531,1.2531,1.2531,0,1.2008,1.2052,1.2086,1.2118,1.2169,1.2189,1.2238,1.226,1.2292,1.2329,1.2338,1.2372,1.2396,1.2434,1.245,1.25,1.2511,1.2522,1.2526,1.2521,1.252,1.2536,1.2532,1.2533,1.2533,1.2532,1.2532,0,1.2052,1.2076,1.2135,1.2178,1.219,1.2225,1.2262,1.2293,1.2313,1.236,1.2372,1.2403,1.2448,1.2471,1.2526,1.2537,1.2594,1.2596,1.2581,1.2583,1.2611,1.2608,1.2698,1.2711,1.2645,1.2645,1.2646,0,1.2089,1.2123,1.217,1.2196,1.2219,1.2259,1.2287,1.2308,1.2336,1.2381,1.2408,1.2453,1.249,1.2561,1.2588,1.2631,1.2633,1.2662,1.264,1.2634,1.2633,1.2631,1.2634,1.2666,1.2667,1.2667,1.2668,0,1.2152,1.2162,1.2201,1.2245,1.2277,1.2312,1.2347,1.2367,1.2394,1.2425,1.247,1.2499,1.2556,1.2601,1.2645,1.2668,1.2672,1.2674,1.2683,1.2679,1.2669,1.2674,1.2592,1.2672,1.2672,1.2671,1.2671,1.2671,1.2193,1.2224,1.2262,1.2305,1.2334,1.2366,1.2398,1.2422,1.2461,1.2509,1.2519,1.2567,1.2604,1.2664,1.2688,1.2726,1.272,1.2733,1.2736,1.2739,1.274,1.2663,1.2734,1.2734,1.2734,1.2734,1.2734,0,1.2256,1.2281,1.232,1.2369,1.2403,1.2404,1.2443,1.2471,1.2513,1.2547,1.2584,1.2636,1.268,1.2711,1.2755,1.2779,1.2782,1.279,1.2788,1.2793,1.2743,1.2731,1.2787,1.2787,1.2787,1.2787,1.2786,1.2786,1.2292,1.2345,1.236,1.2426,1.2451,1.2498,1.252,1.255,1.2577,1.2635,1.2671,1.2691,1.2724,1.2771,1.281,1.2818,1.2834,1.2841,1.2849,1.2802,1.2796,1.2791,1.278,1.2845,1.2845,1.2896,1.2896,1.2897]},{"header":{"parameterUnit":"m.s-1","parameterCategory":1,"la1":30.2991,"la2":30.254,"lo1":-89.0895,"lo2":-89.0444,"dy":0.0017,"dx":0.0017,"nx":28,"ny":28,"refTime":"2024-04-19T09:00:00:Z","depth":0,"parameterNumber":3,"parameterNumberName":"V-component_of_WINDS"},"data":[0,0,0,0,0,0,0,0,0,0,0,0,0,0,0,0,0,0,0,0,0,0,0,0,0,0,0,0,0,0,0,0,0,0,0,0,0,0,0,0,0,0,0,0,0,0,0,0,0,0,0,0,0,0,0,0,0,0,1.7351,1.7351,0,1.7395,1.7395,1.7396,1.7393,1.7393,1.7392,1.7391,1.7433,1.7435,1.7437,0,0,0,0,0,0,0,0,0,0,0,0,0,1.7263,1.7265,1.7351,1.7352,1.7352,1.7395,1.7395,1.7396,1.7393,1.7393,1.7392,1.7391,1.7433,1.7435,1.7437,0,0,0,0,0,0,0,0,0,0,0,0,0,1.7303,1.7265,1.7351,1.7356,1.7357,1.7394,1.7395,1.7396,1.7394,1.7393,1.7392,1.7391,1.7432,1.7435,1.7437,1.7471,0,0,1.7445,1.7446,0,0,0,0,0,0,0,0,1.7301,1.7306,1.7355,1.7356,1.7357,1.7388,1.7379,1.7421,1.7394,1.738,1.7391,1.739,1.7419,1.7422,1.7432,1.7473,1.7475,1.7445,1.7447,1.7448,1.7449,0,0,0,0,0,0,0,1.7298,1.7305,1.7368,1.7355,1.7357,1.7355,1.736,1.7387,1.7404,1.7381,1.7381,1.7386,1.7419,1.743,1.7433,1.7476,1.7445,1.7447,1.7449,1.745,1.7546,1.7547,0,0,0,0,0,0,1.7295,1.7302,1.7367,1.7369,1.7326,1.7358,1.7363,1.7379,1.7403,1.7406,1.7387,1.7386,1.7426,1.743,1.7435,1.7476,1.7448,1.745,1.7452,1.7545,1.7547,1.7548,0,0,0,0,0,0,1.7293,1.73,1.7365,1.7336,1.7344,1.736,1.7378,1.738,1.7391,1.7408,1.7411,1.7395,1.7426,1.7431,1.7462,1.7478,1.7451,1.7454,1.7544,1.7546,1.7547,1.756,0,0,0,0,0,0,1.729,1.73,1.7314,1.7336,1.7346,1.7393,1.7379,1.7382,1.7396,1.7395,1.7417,1.7419,1.7425,1.7459,1.7465,1.7481,1.7456,1.7543,1.7545,1.7547,1.7558,1.7562,1.7565,0,0,0,0,0,1.7287,1.7315,1.7314,1.7322,1.7363,1.7394,1.7399,1.7406,1.7397,1.741,1.7421,1.7419,1.7475,1.7462,1.7469,1.7486,1.7542,1.7544,1.7547,1.7557,1.7561,1.7564,0,0,0,0,0,0,1.7293,1.7318,1.7318,1.7354,1.7372,1.7393,1.7411,1.741,1.7431,1.7429,1.7436,1.7441,1.7472,1.7482,1.7467,1.752,1.7507,1.7511,1.7512,1.7517,1.752,1.7517,1.7458,0,0,0,0,0,1.7298,1.7322,1.7342,1.7372,1.7381,1.7394,1.7408,1.7412,1.743,1.7437,1.7451,1.7468,1.749,1.7504,1.7524,1.7559,1.7564,1.7574,1.7578,1.758,1.7583,1.7602,1.7607,1.7555,1.7555,1.7555,0,0,1.731,1.7326,1.734,1.7373,1.7388,1.7411,1.7401,1.7425,1.7442,1.7441,1.7471,1.7482,1.7501,1.7534,1.755,1.7544,1.7599,1.7583,1.7585,1.7587,1.7605,1.761,1.7614,1.7557,1.7557,1.7557,0,0,1.7342,1.7358,1.7384,1.7399,1.7421,1.743,1.7436,1.7458,1.7465,1.7496,1.7495,1.7515,1.7552,1.7566,1.7578,1.7616,1.7614,1.7622,1.7639,1.7657,1.7661,1.7665,1.7678,1.7683,1.7625,1.7625,1.7625,0,1.7353,1.7389,1.7397,1.7423,1.7437,1.7438,1.7464,1.7477,1.7505,1.7514,1.7507,1.7554,1.7567,1.7604,1.7613,1.7623,1.763,1.762,1.766,1.7664,1.7668,1.768,1.7685,1.7626,1.7626,1.7626,1.7626,0,1.7402,1.7426,1.7445,1.7472,1.7489,1.7514,1.7525,1.7541,1.7543,1.7552,1.7583,1.7599,1.7623,1.7632,1.7635,1.7669,1.7664,1.7659,1.7646,1.7673,1.7685,1.769,1.7628,1.7627,1.7627,1.7627,0,0,1.7439,1.7471,1.7477,1.749,1.7514,1.7533,1.7558,1.7583,1.7596,1.7614,1.7635,1.7667,1.7662,1.7676,1.7679,1.7696,1.7724,1.7688,1.7689,1.7694,1.7762,1.7766,1.7771,1.7723,1.7724,1.7725,1.776,0,1.7474,1.752,1.7528,1.7568,1.759,1.7591,1.7613,1.763,1.7639,1.7659,1.7668,1.7691,1.7683,1.7691,1.7707,1.7717,1.7738,1.7715,1.7742,1.7742,1.7737,1.7778,1.7782,1.7815,1.7765,1.7766,1.7766,0,1.7521,1.7542,1.7584,1.7606,1.7615,1.7635,1.7658,1.7677,1.7696,1.7701,1.7717,1.7719,1.7744,1.7731,1.7765,1.7749,1.7761,1.7767,1.7769,1.7771,1.7756,1.7781,1.7825,1.783,1.7774,1.7773,1.7773,0,1.7543,1.7582,1.7612,1.7623,1.7649,1.7663,1.7674,1.7692,1.7706,1.7726,1.7735,1.7757,1.7769,1.7785,1.7793,1.7782,1.7827,1.7814,1.7831,1.7831,1.784,1.7839,1.7887,1.7848,1.7848,1.7848,1.7848,0,1.7581,1.7607,1.7623,1.7641,1.767,1.7679,1.7706,1.7717,1.7733,1.7753,1.7755,1.7773,1.7783,1.7802,1.7808,1.7836,1.7841,1.7846,1.7847,1.7845,1.7845,1.7853,1.785,1.7849,1.7849,1.7849,1.7848,0,1.7611,1.7623,1.7656,1.7678,1.7684,1.7704,1.7722,1.774,1.7749,1.7774,1.7781,1.7795,1.7818,1.7827,1.7855,1.7859,1.7891,1.7891,1.7885,1.7885,1.7902,1.79,1.7956,1.7964,1.792,1.792,1.7921,0,1.7634,1.7654,1.7679,1.7693,1.7705,1.7727,1.7742,1.7751,1.7766,1.7789,1.7803,1.7827,1.7846,1.7883,1.7895,1.7916,1.7916,1.7934,1.7919,1.7917,1.7916,1.7915,1.7917,1.7937,1.7937,1.7938,1.7938,0,1.7674,1.7679,1.7701,1.7725,1.7742,1.7761,1.7779,1.779,1.7802,1.7819,1.7843,1.7858,1.7887,1.791,1.7932,1.7942,1.7942,1.7943,1.7948,1.7946,1.7942,1.7945,1.7892,1.7941,1.7941,1.7941,1.7941,1.794,1.7701,1.7719,1.7739,1.7763,1.7778,1.7795,1.7813,1.7825,1.7845,1.7871,1.7874,1.79,1.7918,1.7948,1.7959,1.7979,1.7974,1.7981,1.7983,1.7985,1.7986,1.7939,1.7983,1.7983,1.7983,1.7983,1.7983,0,1.7741,1.7755,1.7777,1.7803,1.7821,1.782,1.784,1.7856,1.7879,1.7896,1.7915,1.7943,1.7965,1.7979,1.8001,1.8014,1.8014,1.802,1.8019,1.8021,1.7989,1.7982,1.8019,1.8019,1.8019,1.8019,1.8019,1.8019,1.7764,1.7794,1.7802,1.7839,1.7851,1.7878,1.7889,1.7905,1.7919,1.795,1.7969,1.7978,1.7994,1.8017,1.8037,1.8041,1.8048,1.8054,1.8057,1.8027,1.8023,1.802,1.8013,1.8056,1.8056,1.8087,1.8087,1.8088]}]]